This is the latest recevied weather packets stored in our database for station/object KC5TIL-3. If no packets are shown the sender has not sent any weather packets the latest 10 day(s).
| Time | Temp. | Humidity | Pressure | Rain* | Wind** | Luminosity | Snow |
|---|---|---|---|---|---|---|---|
| 1787561787 | 31.11° C | 15% | 1009.8 hPa | 0 mm | 4.47 m/s, 222° | - | - |
| 1787561484 | 31.11° C | 15% | 1009.8 hPa | 0 mm | 3.58 m/s, 171° | - | - |
| 1787561186 | 31.11° C | 15% | 1009.8 hPa | 0 mm | 4.02 m/s, 198° | - | - |
| 1787560884 | 31.11° C | 15% | 1009.8 hPa | 0 mm | 4.02 m/s, 160° | - | - |
| 1787560582 | 31.11° C | 15% | 1009.8 hPa | 0 mm | 3.13 m/s, 232° | - | - |
| 1787560284 | 31.11° C | 15% | 1009.8 hPa | 0 mm | 3.13 m/s, 188° | - | - |
| 1787559982 | 31.11° C | 15% | 1009.8 hPa | 0 mm | 4.47 m/s, 226° | - | - |
| 1787559684 | 31.11° C | 15% | 1009.8 hPa | 0 mm | 4.47 m/s, 233° | - | - |
| 1787559381 | 31.11° C | 15% | 1009.8 hPa | 0 mm | 5.36 m/s, 219° | - | - |
| 1787559079 | 31.11° C | 15% | 1009.8 hPa | 0 mm | 4.47 m/s, 237° | - | - |
| 1787558781 | 31.67° C | 15% | 1009.8 hPa | 0 mm | 3.13 m/s, 234° | - | - |
| 1787558483 | 31.67° C | 15% | 1009.8 hPa | 0 mm | 3.13 m/s, 216° | - | - |
| 1787558182 | 31.67° C | 15% | 1009.8 hPa | 0 mm | 3.58 m/s, 194° | - | - |
| 1787557883 | 31.67° C | 15% | 1009.8 hPa | 0 mm | 4.02 m/s, 217° | - | - |
| 1787557585 | 31.67° C | 15% | 1009.8 hPa | 0 mm | 4.02 m/s, 213° | - | - |
| 1787557284 | 31.67° C | 15% | 1009.8 hPa | 0 mm | 4.02 m/s, 213° | - | - |
| 1787556986 | 31.67° C | 15% | 1009.8 hPa | 0 mm | 3.58 m/s, 198° | - | - |
| 1787556688 | 32.22° C | 15% | 1009.8 hPa | 0 mm | 3.58 m/s, 208° | - | - |
| 1787556386 | 32.22° C | 15% | 1009.8 hPa | 0 mm | 3.58 m/s, 187° | - | - |
| 1787556088 | 32.22° C | 15% | 1009.8 hPa | 0 mm | 4.47 m/s, 201° | - | - |
| 1787555790 | 32.22° C | 14% | 1009.8 hPa | 0 mm | 3.58 m/s, 200° | - | - |
| 1787555488 | 32.78° C | 14% | 1009.8 hPa | 0 mm | 4.47 m/s, 195° | - | - |
| 1787555190 | 32.78° C | 14% | 1009.8 hPa | 0 mm | 3.13 m/s, 239° | - | - |
| 1787554892 | 32.78° C | 14% | 1009.8 hPa | 0 mm | 4.02 m/s, 227° | - | - |
| 1787554591 | 32.78° C | 14% | 1009.8 hPa | 0 mm | 4.02 m/s, 185° | - | - |
* Rain latest hour (hover to see other rain measurements)
** Current wind speed in m/s (hover to see current wind gust speed)